Time,TemperatureF,DewpointF,PressureIn,WindDirection,WindDirectionDegrees,WindSpeedMPH,WindSpeedGustMPH,Humidity,HourlyPrecipIn,Conditions,Clouds,dailyrainin,SoftwareType,DateUTC
2013-05-22 00:02:00,76.6,73.2,29.91,SE,135,1.0,1.0,89,0.00,,,0.00,meteohub,2013-05-22 05:02:00,
2013-05-22 00:07:00,76.6,73.2,29.91,SE,135,2.0,2.0,89,0.00,,,0.00,meteohub,2013-05-22 05:07:00,
2013-05-22 00:12:00,76.6,73.2,29.91,SE,135,2.0,3.0,89,0.00,,,0.00,meteohub,2013-05-22 05:12:00,
2013-05-22 00:17:00,76.6,73.4,29.91,SE,135,0.0,3.0,90,0.00,,,0.00,meteohub,2013-05-22 05:17:00,
2013-05-22 00:22:00,76.5,73.2,29.91,SE,135,0.0,3.0,90,0.00,,,0.00,meteohub,2013-05-22 05:22:00,
2013-05-22 00:27:00,76.6,73.4,29.91,SE,135,2.0,3.0,90,0.00,,,0.00,meteohub,2013-05-22 05:27:00,
2013-05-22 00:32:00,76.6,73.4,29.91,SE,135,0.0,3.0,90,0.00,,,0.00,meteohub,2013-05-22 05:32:00,
2013-05-22 00:37:00,76.6,73.4,29.92,SE,135,0.0,3.0,90,0.00,,,0.00,meteohub,2013-05-22 05:37:00,
2013-05-22 00:42:00,76.6,73.4,29.91,SE,135,0.0,3.0,90,0.00,,,0.00,meteohub,2013-05-22 05:42:00,
2013-05-22 00:47:00,76.6,73.4,29.91,SE,135,2.0,3.0,90,0.00,,,0.00,meteohub,2013-05-22 05:47:00,
2013-05-22 00:52:00,76.6,73.4,29.91,SE,135,0.0,3.0,90,0.00,,,0.00,meteohub,2013-05-22 05:52:00,
2013-05-22 00:57:00,76.6,73.4,29.91,SE,135,1.0,3.0,90,0.00,,,0.00,meteohub,2013-05-22 05:57:00,
2013-05-22 01:02:00,76.6,73.4,29.91,SE,135,4.0,4.0,90,0.00,,,0.00,meteohub,2013-05-22 06:02:00,
2013-05-22 01:07:00,76.5,73.2,29.91,SE,135,4.0,5.0,90,0.00,,,0.00,meteohub,2013-05-22 06:07:00,
2013-05-22 01:12:00,76.5,73.2,29.90,SE,134,3.0,5.0,90,0.00,,,0.00,meteohub,2013-05-22 06:12:00,
2013-05-22 01:17:00,76.5,73.6,29.90,ESE,107,4.0,8.0,91,0.00,,,0.00,meteohub,2013-05-22 06:17:00,
2013-05-22 01:22:00,76.5,73.6,29.90,SE,140,1.0,9.0,91,0.00,,,0.00,meteohub,2013-05-22 06:22:00,
2013-05-22 01:27:00,76.5,73.6,29.89,SSE,147,3.0,9.0,91,0.00,,,0.00,meteohub,2013-05-22 06:27:00,
2013-05-22 01:32:00,76.5,73.6,29.89,SE,137,4.0,9.0,91,0.00,,,0.00,meteohub,2013-05-22 06:32:00,
2013-05-22 01:37:00,76.5,73.6,29.89,ESE,117,1.0,8.0,91,0.00,,,0.00,meteohub,2013-05-22 06:37:00,
2013-05-22 01:42:00,76.5,73.6,29.88,ESE,123,7.0,8.0,91,0.00,,,0.00,meteohub,2013-05-22 06:42:00,
2013-05-22 01:47:00,76.3,73.4,29.88,SE,134,0.0,8.0,91,0.00,,,0.00,meteohub,2013-05-22 06:47:00,
2013-05-22 01:52:00,76.3,73.4,29.88,SE,127,3.0,8.0,91,0.00,,,0.00,meteohub,2013-05-22 06:52:00,
2013-05-22 01:57:00,76.1,73.2,29.89,ESE,113,1.0,8.0,91,0.00,,,0.00,meteohub,2013-05-22 06:57:00,
2013-05-22 02:02:00,75.9,73.0,29.89,ESE,113,0.0,5.0,91,0.00,,,0.00,meteohub,2013-05-22 07:02:00,
2013-05-22 02:07:00,75.9,73.0,29.88,East,82,1.0,5.0,91,0.00,,,0.00,meteohub,2013-05-22 07:07:00,
2013-05-22 02:12:00,75.9,73.4,29.88,ESE,111,4.0,5.0,92,0.00,,,0.00,meteohub,2013-05-22 07:12:00,
2013-05-22 02:17:00,75.7,73.2,29.87,SE,131,1.0,7.0,92,0.00,,,0.00,meteohub,2013-05-22 07:17:00,
2013-05-22 02:22:00,75.7,73.2,29.86,ESE,103,1.0,7.0,92,0.00,,,0.00,meteohub,2013-05-22 07:22:00,
2013-05-22 02:27:00,75.6,73.0,29.86,East,100,6.0,8.0,92,0.00,,,0.00,meteohub,2013-05-22 07:27:00,
2013-05-22 02:32:00,75.6,73.0,29.86,South,178,0.0,8.0,92,0.00,,,0.00,meteohub,2013-05-22 07:32:00,
2013-05-22 02:37:00,75.6,73.0,29.86,SE,130,0.0,8.0,92,0.00,,,0.00,meteohub,2013-05-22 07:37:00,
2013-05-22 02:42:00,75.6,73.0,29.87,SE,131,0.0,8.0,92,0.00,,,0.00,meteohub,2013-05-22 07:42:00,
2013-05-22 02:47:00,75.6,73.0,29.88,SE,131,0.0,6.0,92,0.00,,,0.00,meteohub,2013-05-22 07:47:00,
2013-05-22 02:52:00,75.6,73.4,29.88,SE,131,3.0,5.0,93,0.00,,,0.00,meteohub,2013-05-22 07:52:00,
2013-05-22 02:57:00,75.6,73.4,29.87,SE,131,1.0,4.0,93,0.00,,,0.00,meteohub,2013-05-22 07:57:00,
2013-05-22 03:02:00,75.6,73.4,29.86,SE,142,4.0,6.0,93,0.00,,,0.00,meteohub,2013-05-22 08:02:00,
2013-05-22 03:07:00,75.6,73.0,29.86,SSE,153,1.0,6.0,92,0.00,,,0.00,meteohub,2013-05-22 08:07:00,
2013-05-22 03:12:00,75.6,73.4,29.86,SE,139,3.0,6.0,93,0.00,,,0.00,meteohub,2013-05-22 08:12:00,
2013-05-22 03:17:00,75.7,73.6,29.86,SSE,150,3.0,6.0,93,0.00,,,0.00,meteohub,2013-05-22 08:17:00,
2013-05-22 03:22:00,75.7,73.6,29.86,SE,124,3.0,8.0,93,0.00,,,0.00,meteohub,2013-05-22 08:22:00,
2013-05-22 03:27:00,75.7,73.6,29.87,ESE,119,1.0,8.0,93,0.00,,,0.00,meteohub,2013-05-22 08:27:00,
2013-05-22 03:33:00,75.7,73.6,29.86,SE,128,5.0,8.0,93,0.00,,,0.00,meteohub,2013-05-22 08:33:00,
2013-05-22 03:37:00,75.6,73.4,29.86,SE,144,3.0,7.0,93,0.00,,,0.00,meteohub,2013-05-22 08:37:00,
2013-05-22 03:42:00,75.7,73.6,29.86,SE,132,6.0,6.0,93,0.00,,,0.00,meteohub,2013-05-22 08:42:00,
2013-05-22 03:47:00,75.7,73.6,29.87,SE,139,0.0,6.0,93,0.00,,,0.00,meteohub,2013-05-22 08:47:00,
2013-05-22 03:52:00,75.7,73.6,29.86,East,101,3.0,6.0,93,0.00,,,0.00,meteohub,2013-05-22 08:52:00,
2013-05-22 03:57:00,75.7,73.6,29.86,East,94,5.0,6.0,93,0.00,,,0.00,meteohub,2013-05-22 08:57:00,
2013-05-22 04:02:00,75.7,73.6,29.86,ESE,111,1.0,5.0,93,0.00,,,0.00,meteohub,2013-05-22 09:02:00,
2013-05-22 04:07:00,75.7,73.6,29.87,SE,125,1.0,7.0,93,0.00,,,0.00,meteohub,2013-05-22 09:07:00,
2013-05-22 04:12:00,75.7,73.6,29.88,South,177,0.0,7.0,93,0.00,,,0.00,meteohub,2013-05-22 09:12:00,
2013-05-22 04:18:00,75.7,73.6,29.87,South,169,3.0,7.0,93,0.00,,,0.00,meteohub,2013-05-22 09:18:00,
2013-05-22 04:23:00,75.7,73.6,29.87,SSE,162,0.0,5.0,93,0.00,,,0.00,meteohub,2013-05-22 09:23:00,
2013-05-22 04:28:00,75.7,73.6,29.86,ESE,115,2.0,5.0,93,0.00,,,0.00,meteohub,2013-05-22 09:28:00,
2013-05-22 04:33:00,75.7,73.6,29.87,ESE,121,1.0,7.0,93,0.00,,,0.00,meteohub,2013-05-22 09:33:00,
2013-05-22 04:38:00,75.7,73.6,29.87,SSE,147,4.0,7.0,93,0.00,,,0.00,meteohub,2013-05-22 09:38:00,
2013-05-22 04:43:00,75.6,73.4,29.87,SE,146,3.0,7.0,93,0.00,,,0.00,meteohub,2013-05-22 09:43:00,
2013-05-22 04:48:00,75.6,73.4,29.88,SE,136,4.0,7.0,93,0.00,,,0.00,meteohub,2013-05-22 09:48:00,
2013-05-22 04:53:00,75.6,73.4,29.88,SE,130,1.0,7.0,93,0.00,,,0.00,meteohub,2013-05-22 09:53:00,
2013-05-22 04:58:00,75.6,73.4,29.88,SE,130,2.0,7.0,93,0.00,,,0.00,meteohub,2013-05-22 09:58:00,
2013-05-22 05:03:00,75.6,73.4,29.88,ESE,113,8.0,8.0,93,0.00,,,0.00,meteohub,2013-05-22 10:03:00,
2013-05-22 05:08:00,75.6,73.4,29.88,ESE,115,3.0,8.0,93,0.00,,,0.00,meteohub,2013-05-22 10:08:00,
2013-05-22 05:13:00,75.7,73.6,29.88,SE,135,4.0,8.0,93,0.00,,,0.00,meteohub,2013-05-22 10:13:00,
2013-05-22 05:18:00,75.7,73.6,29.87,East,96,0.0,9.0,93,0.00,,,0.00,meteohub,2013-05-22 10:18:00,
2013-05-22 05:23:00,75.7,73.6,29.88,ESE,121,2.0,9.0,93,0.00,,,0.00,meteohub,2013-05-22 10:23:00,
2013-05-22 05:28:00,75.7,73.6,29.88,SE,136,6.0,9.0,93,0.00,,,0.00,meteohub,2013-05-22 10:28:00,
2013-05-22 05:33:00,75.7,73.6,29.89,SSE,159,1.0,10.0,93,0.00,,,0.00,meteohub,2013-05-22 10:33:00,
2013-05-22 05:38:00,75.7,73.6,29.90,NNW,342,5.0,10.0,93,0.00,,,0.00,meteohub,2013-05-22 10:38:00,
2013-05-22 05:43:00,74.7,71.2,29.91,NW,311,11.0,11.0,89,0.00,,,0.00,meteohub,2013-05-22 10:43:00,
2013-05-22 05:48:00,72.7,68.9,29.92,NNW,348,7.0,14.0,88,0.00,,,0.00,meteohub,2013-05-22 10:48:00,
2013-05-22 05:53:00,71.2,68.5,29.92,NNW,348,11.0,17.0,91,0.00,,,0.00,meteohub,2013-05-22 10:53:00,
2013-05-22 05:58:00,70.2,68.0,29.92,NE,34,4.0,17.0,93,0.00,,,0.00,meteohub,2013-05-22 10:58:00,
2013-05-22 06:03:00,69.4,67.6,29.92,North,5,9.0,15.0,94,0.00,,,0.00,meteohub,2013-05-22 11:03:00,
2013-05-22 06:08:00,69.1,67.6,29.91,NW,315,11.0,22.0,95,0.00,,,0.00,meteohub,2013-05-22 11:08:00,
2013-05-22 06:13:00,69.1,67.3,29.94,NW,326,12.0,25.0,94,0.00,,,0.00,meteohub,2013-05-22 11:13:00,
2013-05-22 06:18:00,68.9,67.5,29.95,NW,313,5.0,25.0,95,0.00,,,0.00,meteohub,2013-05-22 11:18:00,
2013-05-22 06:23:00,68.5,67.1,29.92,ENE,71,0.0,25.0,95,0.00,,,0.00,meteohub,2013-05-22 11:23:00,
2013-05-22 06:28:00,68.2,66.7,29.94,ESE,121,4.0,20.0,95,0.00,,,0.00,meteohub,2013-05-22 11:28:00,
2013-05-22 06:33:00,68.0,66.6,29.94,ESE,113,5.0,12.0,95,0.00,,,0.00,meteohub,2013-05-22 11:33:00,
2013-05-22 06:38:00,68.2,66.7,29.93,ESE,110,4.0,7.0,95,0.00,,,0.00,meteohub,2013-05-22 11:38:00,
2013-05-22 06:43:00,67.8,66.6,29.92,ESE,109,3.0,8.0,96,0.00,,,0.00,meteohub,2013-05-22 11:43:00,
2013-05-22 06:48:00,68.0,66.7,29.91,SE,128,10.0,10.0,96,0.00,,,0.00,meteohub,2013-05-22 11:48:00,
2013-05-22 06:53:00,68.0,66.7,29.91,SE,127,11.0,11.0,96,0.00,,,0.00,meteohub,2013-05-22 11:53:00,
2013-05-22 06:58:00,68.0,66.7,29.91,SSE,157,7.0,14.0,96,0.00,,,0.00,meteohub,2013-05-22 11:58:00,
2013-05-22 07:03:00,67.8,66.6,29.91,ESE,105,8.0,15.0,96,0.00,,,0.00,meteohub,2013-05-22 12:03:00,
2013-05-22 07:08:00,67.8,66.6,29.90,ESE,113,8.0,15.0,96,0.00,,,0.00,meteohub,2013-05-22 12:08:00,
2013-05-22 07:13:00,67.8,66.6,29.90,SE,126,5.0,15.0,96,0.00,,,0.00,meteohub,2013-05-22 12:13:00,
2013-05-22 07:18:00,67.8,66.6,29.88,ESE,123,7.0,13.0,96,0.00,,,0.00,meteohub,2013-05-22 12:18:00,
2013-05-22 07:23:00,67.6,66.4,29.88,ESE,107,9.0,15.0,96,0.00,,,0.00,meteohub,2013-05-22 12:23:00,
2013-05-22 07:28:00,67.6,66.4,29.88,East,86,8.0,15.0,96,0.00,,,0.00,meteohub,2013-05-22 12:28:00,
2013-05-22 07:33:00,67.6,66.4,29.89,ESE,121,9.0,15.0,96,0.00,,,0.00,meteohub,2013-05-22 12:33:00,
2013-05-22 07:38:00,67.6,66.7,29.91,SE,135,9.0,14.0,97,0.00,,,0.00,meteohub,2013-05-22 12:38:00,
2013-05-22 07:43:00,67.6,66.4,29.91,East,96,8.0,12.0,96,0.00,,,0.00,meteohub,2013-05-22 12:43:00,
2013-05-22 07:48:00,67.6,66.4,29.90,SE,129,6.0,17.0,96,0.00,,,0.00,meteohub,2013-05-22 12:48:00,
2013-05-22 07:53:00,67.5,66.2,29.92,SE,129,5.0,17.0,96,0.00,,,0.00,meteohub,2013-05-22 12:53:00,
2013-05-22 07:58:00,67.6,66.4,29.92,East,86,9.0,17.0,96,0.00,,,0.00,meteohub,2013-05-22 12:58:00,
2013-05-22 08:03:00,67.5,66.2,29.92,ESE,107,9.0,13.0,96,0.00,,,0.00,meteohub,2013-05-22 13:03:00,
2013-05-22 08:08:00,67.6,66.4,29.92,ESE,110,12.0,14.0,96,0.00,,,0.00,meteohub,2013-05-22 13:08:00,
2013-05-22 08:13:00,67.6,66.4,29.92,SE,127,5.0,14.0,96,0.00,,,0.00,meteohub,2013-05-22 13:13:00,
2013-05-22 08:18:00,67.6,66.4,29.94,ESE,117,8.0,14.0,96,0.00,,,0.00,meteohub,2013-05-22 13:18:00,
2013-05-22 08:23:00,67.6,66.4,29.93,ESE,116,8.0,13.0,96,0.00,,,0.00,meteohub,2013-05-22 13:23:00,
2013-05-22 08:28:00,67.6,66.4,29.92,ESE,117,5.0,11.0,96,0.00,,,0.00,meteohub,2013-05-22 13:28:00,
2013-05-22 08:33:00,67.6,66.4,29.92,SE,126,5.0,14.0,96,0.00,,,0.00,meteohub,2013-05-22 13:33:00,
2013-05-22 08:38:00,67.6,66.4,29.90,East,87,10.0,14.0,96,0.00,,,0.00,meteohub,2013-05-22 13:38:00,
2013-05-22 08:43:00,67.6,66.4,29.90,East,91,10.0,15.0,96,0.00,,,0.00,meteohub,2013-05-22 13:43:00,
2013-05-22 08:48:00,67.6,66.4,29.91,ESE,107,9.0,15.0,96,0.00,,,0.00,meteohub,2013-05-22 13:48:00,
2013-05-22 08:53:00,67.6,66.4,29.91,ESE,122,7.0,15.0,96,0.00,,,0.00,meteohub,2013-05-22 13:53:00,
2013-05-22 08:58:00,67.8,66.6,29.91,ESE,113,3.0,14.0,96,0.00,,,0.00,meteohub,2013-05-22 13:58:00,
2013-05-22 09:03:00,67.8,66.6,29.92,East,99,6.0,14.0,96,0.00,,,0.00,meteohub,2013-05-22 14:03:00,
2013-05-22 09:08:00,67.8,66.6,29.91,ESE,119,4.0,14.0,96,0.00,,,0.00,meteohub,2013-05-22 14:08:00,
2013-05-22 09:13:00,68.0,66.6,29.90,East,91,5.0,12.0,95,0.00,,,0.00,meteohub,2013-05-22 14:13:00,
2013-05-22 09:18:00,68.2,66.9,29.91,ESE,115,4.0,11.0,96,0.00,,,0.00,meteohub,2013-05-22 14:18:00,
2013-05-22 09:23:00,68.4,66.9,29.91,ESE,111,9.0,13.0,95,0.00,,,0.00,meteohub,2013-05-22 14:23:00,
2013-05-22 09:28:00,68.5,67.1,29.91,SE,132,3.0,13.0,95,0.00,,,0.00,meteohub,2013-05-22 14:28:00,
2013-05-22 09:33:00,68.7,67.3,29.93,ESE,118,4.0,13.0,95,0.00,,,0.00,meteohub,2013-05-22 14:33:00,
2013-05-22 09:38:00,68.9,67.5,29.94,ESE,109,1.0,13.0,95,0.00,,,0.00,meteohub,2013-05-22 14:38:00,
2013-05-22 09:43:00,69.3,67.8,29.93,NW,314,3.0,11.0,95,0.00,,,0.00,meteohub,2013-05-22 14:43:00,
2013-05-22 09:48:00,69.6,68.2,29.94,WNW,303,4.0,10.0,95,0.00,,,0.00,meteohub,2013-05-22 14:48:00,
2013-05-22 09:53:00,70.2,68.4,29.93,WNW,303,3.0,7.0,94,0.00,,,0.00,meteohub,2013-05-22 14:53:00,
2013-05-22 09:58:00,70.5,68.7,29.94,WNW,303,0.0,6.0,94,0.00,,,0.00,meteohub,2013-05-22 14:58:00,
2013-05-22 10:03:00,70.9,68.4,29.94,WNW,303,0.0,6.0,92,0.00,,,0.00,meteohub,2013-05-22 15:03:00,
2013-05-22 10:08:00,71.1,68.5,29.94,WNW,303,1.0,4.0,92,0.00,,,0.00,meteohub,2013-05-22 15:08:00,
2013-05-22 10:13:00,70.9,68.2,29.94,East,82,0.0,1.0,91,0.00,,,0.00,meteohub,2013-05-22 15:13:00,
2013-05-22 10:18:00,70.9,68.4,29.95,East,93,2.0,6.0,92,0.00,,,0.00,meteohub,2013-05-22 15:18:00,
2013-05-22 10:23:00,70.5,68.0,29.95,NNW,348,3.0,6.0,92,0.00,,,0.00,meteohub,2013-05-22 15:23:00,
2013-05-22 10:28:00,70.3,67.8,29.96,North,0,0.0,6.0,92,0.00,,,0.00,meteohub,2013-05-22 15:28:00,
2013-05-22 10:33:00,70.3,68.2,29.97,North,350,2.0,5.0,93,0.00,,,0.00,meteohub,2013-05-22 15:33:00,
2013-05-22 10:38:00,70.2,68.0,29.99,NNW,334,3.0,5.0,93,0.00,,,0.00,meteohub,2013-05-22 15:38:00,
2013-05-22 10:43:00,70.2,68.4,29.98,NNW,337,2.0,8.0,94,0.00,,,0.00,meteohub,2013-05-22 15:43:00,
2013-05-22 10:48:00,70.0,68.2,29.97,NNE,26,0.0,9.0,94,0.00,,,0.00,meteohub,2013-05-22 15:48:00,
2013-05-22 10:53:00,69.8,68.0,29.99,NNE,26,0.0,9.0,94,0.00,,,0.00,meteohub,2013-05-22 15:53:00,
2013-05-22 10:58:00,69.6,68.2,29.98,NNE,26,1.0,9.0,95,0.00,,,0.00,meteohub,2013-05-22 15:58:00,
2013-05-22 11:03:00,69.6,68.2,29.97,NE,38,0.0,5.0,95,0.00,,,0.00,meteohub,2013-05-22 16:03:00,
2013-05-22 11:08:00,69.4,68.0,29.98,NE,38,0.0,4.0,95,0.00,,,0.00,meteohub,2013-05-22 16:08:00,
2013-05-22 11:13:00,69.4,68.0,29.98,NW,309,1.0,4.0,95,0.00,,,0.00,meteohub,2013-05-22 16:13:00,
2013-05-22 11:18:00,69.4,68.0,29.98,East,96,3.0,6.0,95,0.00,,,0.00,meteohub,2013-05-22 16:18:00,
2013-05-22 11:23:00,69.3,67.8,29.98,SE,136,5.0,6.0,95,0.00,,,0.00,meteohub,2013-05-22 16:23:00,
2013-05-22 11:28:00,69.3,68.0,29.97,SSE,157,5.0,7.0,96,0.00,,,0.00,meteohub,2013-05-22 16:28:00,
2013-05-22 11:33:00,69.3,68.0,29.98,SSE,150,4.0,7.0,96,0.00,,,0.00,meteohub,2013-05-22 16:33:00,
2013-05-22 11:38:00,69.3,68.0,29.98,SSW,207,2.0,8.0,96,0.00,,,0.00,meteohub,2013-05-22 16:38:00,
2013-05-22 11:43:00,69.3,68.0,29.99,SSW,207,5.0,8.0,96,0.00,,,0.00,meteohub,2013-05-22 16:43:00,
2013-05-22 11:48:00,69.3,68.0,29.99,SSW,196,3.0,7.0,96,0.00,,,0.00,meteohub,2013-05-22 16:48:00,
2013-05-22 11:53:00,69.3,68.0,29.99,SSW,196,2.0,7.0,96,0.00,,,0.00,meteohub,2013-05-22 16:53:00,
2013-05-22 11:58:00,69.3,68.0,29.99,South,183,4.0,7.0,96,0.00,,,0.00,meteohub,2013-05-22 16:58:00,
2013-05-22 12:03:00,69.3,68.0,29.98,South,181,3.0,7.0,96,0.00,,,0.00,meteohub,2013-05-22 17:03:00,
2013-05-22 12:08:00,69.3,68.0,29.98,South,181,0.0,7.0,96,0.00,,,0.00,meteohub,2013-05-22 17:08:00,
2013-05-22 12:13:00,68.9,67.6,29.98,South,182,4.0,7.0,96,0.00,,,0.00,meteohub,2013-05-22 17:13:00,
2013-05-22 12:18:00,68.5,67.3,29.96,SSE,162,5.0,7.0,96,0.00,,,0.00,meteohub,2013-05-22 17:18:00,
2013-05-22 12:23:00,68.5,67.3,29.97,South,177,1.0,8.0,96,0.00,,,0.00,meteohub,2013-05-22 17:23:00,
2013-05-22 12:28:00,68.5,67.3,29.97,SW,234,5.0,8.0,96,0.00,,,0.00,meteohub,2013-05-22 17:28:00,
2013-05-22 12:33:00,68.7,67.5,29.96,SW,229,2.0,8.0,96,0.00,,,0.00,meteohub,2013-05-22 17:33:00,
2013-05-22 12:38:00,68.7,67.5,29.97,SSW,199,0.0,7.0,96,0.00,,,0.00,meteohub,2013-05-22 17:38:00,
2013-05-22 12:43:00,69.1,67.8,29.96,SSW,199,1.0,5.0,96,0.00,,,0.00,meteohub,2013-05-22 17:43:00,
2013-05-22 12:48:00,69.4,68.2,29.95,SSW,199,0.0,5.0,96,0.00,,,0.00,meteohub,2013-05-22 17:48:00,
2013-05-22 12:53:00,69.6,68.4,29.95,ESE,119,4.0,5.0,96,0.00,,,0.00,meteohub,2013-05-22 17:53:00,
2013-05-22 12:58:00,70.0,68.5,29.95,ESE,119,1.0,5.0,95,0.00,,,0.00,meteohub,2013-05-22 17:58:00,
2013-05-22 13:03:00,70.3,68.9,29.95,SSW,194,1.0,5.0,95,0.00,,,0.00,meteohub,2013-05-22 18:03:00,
2013-05-22 13:08:00,70.3,68.9,29.95,SSW,194,2.0,6.0,95,0.00,,,0.00,meteohub,2013-05-22 18:08:00,
2013-05-22 13:13:00,70.5,68.7,29.94,SSW,194,2.0,6.0,94,0.00,,,0.00,meteohub,2013-05-22 18:13:00,
2013-05-22 13:18:00,71.1,69.3,29.94,SE,126,2.0,6.0,94,0.00,,,0.00,meteohub,2013-05-22 18:18:00,
2013-05-22 13:23:00,71.8,69.3,29.94,SSE,163,3.0,5.0,92,0.00,,,0.00,meteohub,2013-05-22 18:23:00,
2013-05-22 13:29:00,72.5,69.8,29.94,SSE,162,1.0,6.0,91,0.00,,,0.00,meteohub,2013-05-22 18:29:00,
2013-05-22 13:34:00,73.0,69.3,29.94,SE,126,6.0,7.0,88,0.00,,,0.00,meteohub,2013-05-22 18:34:00,
2013-05-22 13:39:00,73.6,68.4,29.94,SE,127,4.0,7.0,84,0.00,,,0.00,meteohub,2013-05-22 18:39:00,
2013-05-22 13:44:00,73.9,69.1,29.94,South,170,3.0,8.0,85,0.00,,,0.00,meteohub,2013-05-22 18:44:00,
2013-05-22 13:49:00,74.7,70.5,29.93,SE,124,3.0,8.0,87,0.00,,,0.00,meteohub,2013-05-22 18:49:00,
2013-05-22 13:54:00,75.0,70.2,29.93,SE,130,5.0,7.0,85,0.00,,,0.00,meteohub,2013-05-22 18:54:00,
2013-05-22 13:59:00,75.4,69.8,29.93,ESE,118,4.0,7.0,83,0.00,,,0.00,meteohub,2013-05-22 18:59:00,
2013-05-22 14:04:00,75.7,69.8,29.94,ESE,119,1.0,7.0,82,0.00,,,0.00,meteohub,2013-05-22 19:04:00,
2013-05-22 14:09:00,75.9,70.0,29.94,SSE,149,0.0,7.0,82,0.00,,,0.00,meteohub,2013-05-22 19:09:00,
2013-05-22 14:14:00,76.3,70.3,29.94,SSE,149,2.0,7.0,82,0.00,,,0.00,meteohub,2013-05-22 19:14:00,
2013-05-22 14:19:00,76.8,70.9,29.94,SSE,161,1.0,4.0,82,0.00,,,0.00,meteohub,2013-05-22 19:19:00,
2013-05-22 14:24:00,77.5,70.2,29.93,SE,138,6.0,6.0,78,0.00,,,0.00,meteohub,2013-05-22 19:24:00,
2013-05-22 14:29:00,77.7,70.0,29.94,SE,132,1.0,6.0,77,0.00,,,0.00,meteohub,2013-05-22 19:29:00,
2013-05-22 14:34:00,78.1,70.3,29.93,South,184,2.0,6.0,77,0.00,,,0.00,meteohub,2013-05-22 19:34:00,
2013-05-22 14:39:00,77.5,69.8,29.93,SE,140,0.0,7.0,77,0.00,,,0.00,meteohub,2013-05-22 19:39:00,
2013-05-22 14:44:00,77.5,69.8,29.93,SE,142,1.0,7.0,77,0.00,,,0.00,meteohub,2013-05-22 19:44:00,
2013-05-22 14:49:00,77.4,70.0,29.93,SSE,149,4.0,7.0,78,0.00,,,0.00,meteohub,2013-05-22 19:49:00,
2013-05-22 14:54:00,77.5,70.2,29.93,SSE,157,1.0,7.0,78,0.00,,,0.00,meteohub,2013-05-22 19:54:00,
2013-05-22 14:59:00,77.7,70.7,29.93,SSE,150,1.0,6.0,79,0.00,,,0.00,meteohub,2013-05-22 19:59:00,
2013-05-22 15:04:00,77.7,70.3,29.93,SSE,167,5.0,6.0,78,0.00,,,0.00,meteohub,2013-05-22 20:04:00,
2013-05-22 15:09:00,77.5,70.5,29.93,SSE,156,4.0,7.0,79,0.00,,,0.00,meteohub,2013-05-22 20:09:00,
2013-05-22 15:14:00,77.5,70.5,29.93,SSE,151,3.0,7.0,79,0.00,,,0.00,meteohub,2013-05-22 20:14:00,
2013-05-22 15:19:00,77.5,70.9,29.92,SSE,149,1.0,9.0,80,0.00,,,0.00,meteohub,2013-05-22 20:19:00,
2013-05-22 15:24:00,78.3,71.2,29.92,South,186,4.0,9.0,79,0.00,,,0.00,meteohub,2013-05-22 20:24:00,
2013-05-22 15:29:00,78.4,71.4,29.92,South,183,2.0,9.0,79,0.00,,,0.00,meteohub,2013-05-22 20:29:00,
2013-05-22 15:34:00,78.4,71.4,29.92,South,189,3.0,10.0,79,0.00,,,0.00,meteohub,2013-05-22 20:34:00,
2013-05-22 15:39:00,78.6,71.2,29.92,SSW,211,8.0,10.0,78,0.00,,,0.00,meteohub,2013-05-22 20:39:00,
2013-05-22 15:44:00,79.2,71.8,29.92,SSE,164,6.0,7.0,78,0.00,,,0.00,meteohub,2013-05-22 20:44:00,
2013-05-22 15:49:00,78.8,71.1,29.92,SSW,194,1.0,9.0,77,0.00,,,0.00,meteohub,2013-05-22 20:49:00,
2013-05-22 15:54:00,79.0,71.1,29.91,SSE,167,0.0,10.0,77,0.00,,,0.00,meteohub,2013-05-22 20:54:00,
2013-05-22 15:59:00,79.0,70.3,29.91,SW,227,3.0,10.0,75,0.00,,,0.00,meteohub,2013-05-22 20:59:00,
2013-05-22 16:04:00,79.2,71.2,29.91,SSW,194,1.0,10.0,77,0.00,,,0.00,meteohub,2013-05-22 21:04:00,
2013-05-22 16:09:00,79.3,70.7,29.91,SSE,161,6.0,7.0,75,0.00,,,0.00,meteohub,2013-05-22 21:09:00,
2013-05-22 16:14:00,79.3,70.7,29.91,SW,222,6.0,7.0,75,0.00,,,0.00,meteohub,2013-05-22 21:14:00,
2013-05-22 16:19:00,79.3,71.1,29.91,SSW,202,4.0,8.0,76,0.00,,,0.00,meteohub,2013-05-22 21:19:00,
2013-05-22 16:24:00,79.5,71.2,29.91,SSW,209,6.0,8.0,76,0.00,,,0.00,meteohub,2013-05-22 21:24:00,
2013-05-22 16:29:00,79.9,71.2,29.91,SW,226,4.0,8.0,75,0.00,,,0.00,meteohub,2013-05-22 21:29:00,
2013-05-22 16:34:00,80.1,71.4,29.91,SW,223,6.0,7.0,75,0.00,,,0.00,meteohub,2013-05-22 21:34:00,
2013-05-22 16:39:00,80.1,71.8,29.91,SW,220,7.0,8.0,76,0.00,,,0.00,meteohub,2013-05-22 21:39:00,
2013-05-22 16:44:00,79.9,72.0,29.91,SW,214,5.0,8.0,77,0.00,,,0.00,meteohub,2013-05-22 21:44:00,
2013-05-22 16:49:00,79.9,72.3,29.91,SW,219,6.0,10.0,78,0.00,,,0.00,meteohub,2013-05-22 21:49:00,
2013-05-22 16:54:00,79.9,72.3,29.91,South,181,6.0,10.0,78,0.00,,,0.00,meteohub,2013-05-22 21:54:00,
2013-05-22 16:59:00,79.9,72.3,29.91,SW,218,10.0,10.0,78,0.00,,,0.00,meteohub,2013-05-22 21:59:00,
2013-05-22 17:04:00,80.1,72.1,29.91,SSE,157,5.0,13.0,77,0.00,,,0.00,meteohub,2013-05-22 22:04:00,
2013-05-22 17:09:00,79.9,72.3,29.91,South,185,4.0,13.0,78,0.00,,,0.00,meteohub,2013-05-22 22:09:00,
2013-05-22 17:14:00,80.1,72.5,29.91,SSW,198,4.0,13.0,78,0.00,,,0.00,meteohub,2013-05-22 22:14:00,
2013-05-22 17:19:00,80.4,73.2,29.91,SSW,196,3.0,13.0,79,0.00,,,0.00,meteohub,2013-05-22 22:19:00,
2013-05-22 17:24:00,80.4,72.5,29.91,South,186,3.0,11.0,77,0.00,,,0.00,meteohub,2013-05-22 22:24:00,
2013-05-22 17:29:00,80.4,72.9,29.91,South,182,4.0,8.0,78,0.00,,,0.00,meteohub,2013-05-22 22:29:00,
2013-05-22 17:34:00,80.2,72.7,29.90,SSW,200,5.0,9.0,78,0.00,,,0.00,meteohub,2013-05-22 22:34:00,
2013-05-22 17:39:00,80.4,72.9,29.90,South,190,2.0,9.0,78,0.00,,,0.00,meteohub,2013-05-22 22:39:00,
2013-05-22 17:44:00,80.6,72.3,29.90,South,175,2.0,8.0,76,0.00,,,0.00,meteohub,2013-05-22 22:44:00,
2013-05-22 17:49:00,80.6,72.3,29.90,SSE,152,4.0,8.0,76,0.00,,,0.00,meteohub,2013-05-22 22:49:00,
2013-05-22 17:54:00,80.8,72.5,29.90,South,175,4.0,8.0,76,0.00,,,0.00,meteohub,2013-05-22 22:54:00,
2013-05-22 17:59:00,81.0,73.0,29.90,SSW,194,0.0,8.0,77,0.00,,,0.00,meteohub,2013-05-22 22:59:00,
2013-05-22 18:04:00,81.1,73.2,29.90,SW,229,3.0,7.0,77,0.00,,,0.00,meteohub,2013-05-22 23:04:00,
2013-05-22 18:09:00,81.1,72.5,29.90,SW,217,4.0,6.0,75,0.00,,,0.00,meteohub,2013-05-22 23:09:00,
2013-05-22 18:14:00,81.0,72.3,29.90,SSW,202,4.0,7.0,75,0.00,,,0.00,meteohub,2013-05-22 23:14:00,
2013-05-22 18:19:00,80.8,72.1,29.90,SW,227,5.0,7.0,75,0.00,,,0.00,meteohub,2013-05-22 23:19:00,
2013-05-22 18:24:00,80.4,71.8,29.90,SSW,200,3.0,7.0,75,0.00,,,0.00,meteohub,2013-05-22 23:24:00,
2013-05-22 18:29:00,80.4,72.1,29.90,SSW,200,1.0,7.0,76,0.00,,,0.00,meteohub,2013-05-22 23:29:00,
2013-05-22 18:34:00,80.4,72.1,29.90,SSW,207,3.0,7.0,76,0.00,,,0.00,meteohub,2013-05-22 23:34:00,
2013-05-22 18:39:00,80.4,72.1,29.90,SSW,209,3.0,7.0,76,0.00,,,0.00,meteohub,2013-05-22 23:39:00,
2013-05-22 18:44:00,80.4,72.1,29.90,SW,233,0.0,5.0,76,0.00,,,0.00,meteohub,2013-05-22 23:44:00,
2013-05-22 18:50:00,80.6,72.3,29.90,SW,221,2.0,6.0,76,0.00,,,0.00,meteohub,2013-05-22 23:50:00,
2013-05-22 18:55:00,80.4,72.1,29.91,South,188,3.0,6.0,76,0.00,,,0.00,meteohub,2013-05-22 23:55:00,
2013-05-22 19:00:00,80.2,72.0,29.91,SW,214,1.0,6.0,76,0.00,,,0.00,meteohub,2013-05-23 00:00:00,
2013-05-22 19:05:00,80.1,71.8,29.91,South,173,4.0,7.0,76,0.00,,,0.00,meteohub,2013-05-23 00:05:00,
2013-05-22 19:10:00,79.7,71.4,29.91,SSW,199,3.0,7.0,76,0.00,,,0.00,meteohub,2013-05-23 00:10:00,
2013-05-22 19:15:00,79.5,71.6,29.91,SSW,202,4.0,7.0,77,0.00,,,0.00,meteohub,2013-05-23 00:15:00,
2013-05-22 19:20:00,79.3,71.4,29.91,South,179,0.0,7.0,77,0.00,,,0.00,meteohub,2013-05-23 00:20:00,
2013-05-22 19:25:00,79.3,71.4,29.91,South,179,0.0,7.0,77,0.00,,,0.00,meteohub,2013-05-23 00:25:00,
2013-05-22 19:30:00,79.2,71.2,29.91,South,179,0.0,6.0,77,0.00,,,0.00,meteohub,2013-05-23 00:30:00,
2013-05-22 19:35:00,79.2,71.8,29.91,South,179,1.0,4.0,78,0.00,,,0.00,meteohub,2013-05-23 00:35:00,
2013-05-22 19:40:00,79.0,72.0,29.91,South,179,1.0,5.0,79,0.00,,,0.00,meteohub,2013-05-23 00:40:00,
2013-05-22 19:45:00,78.6,71.6,29.92,South,179,3.0,5.0,79,0.00,,,0.00,meteohub,2013-05-23 00:45:00,
2013-05-22 19:50:00,78.1,71.4,29.92,SSE,164,3.0,3.0,80,0.00,,,0.00,meteohub,2013-05-23 00:50:00,
2013-05-22 19:55:00,77.5,71.2,29.92,SE,146,2.0,4.0,81,0.00,,,0.00,meteohub,2013-05-23 00:55:00,
2013-05-22 20:00:00,77.5,71.6,29.92,SE,146,0.0,6.0,82,0.00,,,0.00,meteohub,2013-05-23 01:00:00,
2013-05-22 20:05:00,77.4,71.8,29.92,SE,146,1.0,6.0,83,0.00,,,0.00,meteohub,2013-05-23 01:05:00,
2013-05-22 20:10:00,77.0,71.8,29.92,SE,146,0.0,6.0,84,0.00,,,0.00,meteohub,2013-05-23 01:10:00,
2013-05-22 20:15:00,76.6,71.8,29.92,SE,146,0.0,4.0,85,0.00,,,0.00,meteohub,2013-05-23 01:15:00,
2013-05-22 20:20:00,76.3,71.8,29.92,SE,146,0.0,3.0,86,0.00,,,0.00,meteohub,2013-05-23 01:20:00,
2013-05-22 20:25:00,76.1,72.0,29.92,SE,146,0.0,2.0,87,0.00,,,0.00,meteohub,2013-05-23 01:25:00,
2013-05-22 20:30:00,75.9,71.8,29.92,SE,146,0.0,2.0,87,0.00,,,0.00,meteohub,2013-05-23 01:30:00,
2013-05-22 20:35:00,75.7,71.6,29.92,SE,146,0.0,2.0,87,0.00,,,0.00,meteohub,2013-05-23 01:35:00,
2013-05-22 20:40:00,75.7,72.0,29.92,SE,146,0.0,2.0,88,0.00,,,0.00,meteohub,2013-05-23 01:40:00,
2013-05-22 20:45:00,75.6,71.8,29.92,SE,146,0.0,0.0,88,0.00,,,0.00,meteohub,2013-05-23 01:45:00,
2013-05-22 20:50:00,75.4,71.6,29.92,SE,146,0.0,0.0,88,0.00,,,0.00,meteohub,2013-05-23 01:50:00,
2013-05-22 20:55:00,75.2,71.8,29.93,SE,146,0.0,0.0,89,0.00,,,0.00,meteohub,2013-05-23 01:55:00,
2013-05-22 21:00:00,75.0,71.6,29.92,SE,146,1.0,0.0,89,0.00,,,0.00,meteohub,2013-05-23 02:00:00,
2013-05-22 21:05:00,74.8,71.8,29.93,SE,146,0.0,1.0,90,0.00,,,0.00,meteohub,2013-05-23 02:05:00,
2013-05-22 21:10:00,74.7,71.6,29.93,SE,146,0.0,2.0,90,0.00,,,0.00,meteohub,2013-05-23 02:10:00,
2013-05-22 21:15:00,74.5,71.4,29.93,SE,146,0.0,2.0,90,0.00,,,0.00,meteohub,2013-05-23 02:15:00,
2013-05-22 21:20:00,74.5,71.6,29.93,SE,146,0.0,2.0,91,0.00,,,0.00,meteohub,2013-05-23 02:20:00,
2013-05-22 21:25:00,74.3,71.4,29.93,SE,146,0.0,2.0,91,0.00,,,0.00,meteohub,2013-05-23 02:25:00,
2013-05-22 21:30:00,74.1,71.2,29.93,SE,146,0.0,0.0,91,0.00,,,0.00,meteohub,2013-05-23 02:30:00,
2013-05-22 21:35:00,74.1,71.2,29.94,SE,146,0.0,1.0,91,0.00,,,0.00,meteohub,2013-05-23 02:35:00,
2013-05-22 21:40:00,73.9,71.1,29.94,SE,146,0.0,1.0,91,0.00,,,0.00,meteohub,2013-05-23 02:40:00,
2013-05-22 21:45:00,73.9,71.4,29.94,SE,146,1.0,1.0,92,0.00,,,0.00,meteohub,2013-05-23 02:45:00,
2013-05-22 21:50:00,73.9,71.4,29.94,SE,146,0.0,1.0,92,0.00,,,0.00,meteohub,2013-05-23 02:50:00,
2013-05-22 21:55:00,73.8,71.2,29.94,SE,146,0.0,2.0,92,0.00,,,0.00,meteohub,2013-05-23 02:55:00,
2013-05-22 22:00:00,73.8,71.6,29.94,SE,146,0.0,2.0,93,0.00,,,0.00,meteohub,2013-05-23 03:00:00,
2013-05-22 22:05:00,73.6,71.4,29.95,SE,146,0.0,1.0,93,0.00,,,0.00,meteohub,2013-05-23 03:05:00,
2013-05-22 22:10:00,73.6,71.4,29.95,SE,146,2.0,2.0,93,0.00,,,0.00,meteohub,2013-05-23 03:10:00,
2013-05-22 22:15:00,73.6,71.4,29.96,SE,146,0.0,3.0,93,0.00,,,0.00,meteohub,2013-05-23 03:15:00,
2013-05-22 22:20:00,73.6,71.4,29.96,SE,146,1.0,3.0,93,0.00,,,0.00,meteohub,2013-05-23 03:20:00,
2013-05-22 22:25:00,73.6,71.4,29.96,SE,146,2.0,3.0,93,0.00,,,0.00,meteohub,2013-05-23 03:25:00,
2013-05-22 22:30:00,73.6,71.8,29.96,SE,146,1.0,3.0,94,0.00,,,0.00,meteohub,2013-05-23 03:30:00,
2013-05-22 22:35:00,73.6,71.4,29.96,SE,146,0.0,3.0,93,0.00,,,0.00,meteohub,2013-05-23 03:35:00,
2013-05-22 22:40:00,73.4,71.2,29.96,SE,146,2.0,3.0,93,0.00,,,0.00,meteohub,2013-05-23 03:40:00,
2013-05-22 22:45:00,73.2,71.1,29.96,SE,146,2.0,3.0,93,0.00,,,0.00,meteohub,2013-05-23 03:45:00,
2013-05-22 22:50:00,73.2,71.1,29.96,SE,146,0.0,3.0,93,0.00,,,0.00,meteohub,2013-05-23 03:50:00,
2013-05-22 22:55:00,73.2,71.1,29.96,SE,146,0.0,3.0,93,0.00,,,0.00,meteohub,2013-05-23 03:55:00,
2013-05-22 23:00:00,73.0,71.2,29.96,SE,146,0.0,3.0,94,0.00,,,0.00,meteohub,2013-05-23 04:00:00,
2013-05-22 23:01:00,73.0,71.2,29.96,SE,146,0.0,3.0,94,0.00,,,0.00,meteohub,2013-05-23 04:01:00,
2013-05-22 23:02:00,73.0,71.2,29.96,SE,146,2.0,3.0,94,0.00,,,0.00,meteohub,2013-05-23 04:02:00,
2013-05-22 23:06:00,73.0,71.2,29.96,SE,146,0.0,3.0,94,0.00,,,0.00,meteohub,2013-05-23 04:06:00,
2013-05-22 23:11:00,73.0,71.2,29.96,SE,146,0.0,3.0,94,0.00,,,0.00,meteohub,2013-05-23 04:11:00,
2013-05-22 23:16:00,72.9,71.1,29.96,SE,146,1.0,3.0,94,0.00,,,0.00,meteohub,2013-05-23 04:16:00,
2013-05-22 23:21:00,72.9,71.1,29.96,SE,146,0.0,3.0,94,0.00,,,0.00,meteohub,2013-05-23 04:21:00,
2013-05-22 23:26:00,72.9,71.1,29.96,SE,146,1.0,3.0,94,0.00,,,0.00,meteohub,2013-05-23 04:26:00,
2013-05-22 23:32:00,72.7,70.9,29.96,SE,146,0.0,4.0,94,0.00,,,0.00,meteohub,2013-05-23 04:32:00,
2013-05-22 23:37:00,72.7,70.9,29.96,SE,146,0.0,4.0,94,0.00,,,0.00,meteohub,2013-05-23 04:37:00,
2013-05-22 23:42:00,72.7,70.9,29.96,SE,146,0.0,4.0,94,0.00,,,0.00,meteohub,2013-05-23 04:42:00,
2013-05-22 23:47:00,72.5,70.7,29.96,SE,146,0.0,4.0,94,0.00,,,0.00,meteohub,2013-05-23 04:47:00,
2013-05-22 23:52:00,72.3,70.5,29.96,SE,146,0.0,3.0,94,0.00,,,0.00,meteohub,2013-05-23 04:52:00,
2013-05-22 23:57:00,72.3,70.5,29.96,SE,146,0.0,3.0,94,0.00,,,0.00,meteohub,2013-05-23 04:57:00,